Philadelphia, PA

7:05 AM EDT on March 28, 2017 (GMT -0400)
Philadelphia International

Weather History for KPHL - August, 2013

Change the Weather History Date:

Friday, August 2, 2013

  Actual Average Record
Temperature  
Mean Temperature 77 °F 78 °F  
Max Temperature 86 °F 87 °F 99 °F (1955)
Min Temperature 68 °F 69 °F 58 °F (1947)
Degree Days  
Heating Degree Days 0 0  
Month to date heating degree days 0 0  
Since 1 June heating degree days 0 11  
Since 1 July heating degree days 0 0  
Cooling Degree Days 12 13  
Month to date cooling degree days 18 26  
Year to date cooling degree days 928 783  
Since 1 June cooling degree days 804 692  
Growing Degree Days 27 (Base 50)    
Moisture  
Dew Point 65 °F    
Average Humidity 64    
Maximum Humidity 90    
Minimum Humidity 37    
Precipitation  
Precipitation 0.00 in 0.12 in 2.86 in (1883)
Month to date precipitation 1.33 0.25  
Year to date precipitation 37.66 24.77  
Snow  
Snow 0.00 in 0.00 in 0.00 in (1870)
Month to date snowfall 0.0 0.0  
Since 1 June snowfall 0.0 0.0  
Since 1 July snowfall 0.0 0.0  
Snow Depth 0.00 in    
Sea Level Pressure  
Sea Level Pressure 29.89 in    
Wind  
Wind Speed 8 mph (WSW)    
Max Wind Speed 17 mph    
Max Gust Speed 24 mph    
Visibility 9 miles    
Events      
T = Trace of Precipitation, MM = Missing Value Source: NWS Daily Summary

Daily Weather History Graph

Daily Weather History Graph

Search for Another Location

Airport or City:

Trip Planner

Search our weather history database for the weather conditions in past years. The results will help you decide how hot, cold, wet, or windy it might be!

Date:

Astronomy

Aug. 02, 2013 Rise Set
Actual Time 6:00 AM EDT 8:13 PM EDT
Civil Twilight 5:30 AM EDT 8:43 PM EDT
Nautical Twilight 4:53 AM EDT 9:19 PM EDT
Astronomical Twilight 4:13 AM EDT 10:00 PM EDT
Moon 2:19 AM EDT (8/2) 5:08 PM EDT (8/2)
Length of Visible Light 15h 12m
Length of Day
14h 12m
Waning Crescent, 16% of the Moon is Illuminated
Aug 2
Waning Crescent
Aug 6
New
Aug 14
First Quarter
Aug 20
Full
Aug 28
Last Quarter

Hourly Weather History & Observations

Time (EDT) Temp. Heat Index Dew Point Humidity Pressure Visibility Wind Dir Wind Speed Gust Speed Precip Events Conditions
12:54 AM 71.1 °F - 68.0 °F 90% 29.85 in 10.0 mi NNW 3.5 mph - N/A   Mostly Cloudy
1:54 AM 71.1 °F - 68.0 °F 90% 29.84 in 10.0 mi WNW 5.8 mph - N/A   Mostly Cloudy
2:03 AM 71.6 °F - 68.0 °F 88% 29.83 in 8.0 mi West 4.6 mph - N/A   Scattered Clouds
2:54 AM 71.1 °F - 68.0 °F 90% 29.84 in 8.0 mi Calm Calm - N/A   Scattered Clouds
2:59 AM 71.6 °F - 68.0 °F 88% 29.83 in 6.0 mi SW 3.5 mph - N/A   Overcast
3:01 AM 71.6 °F - 68.0 °F 88% 29.83 in 7.0 mi SW 4.6 mph - N/A   Overcast
3:08 AM 71.6 °F - 68.0 °F 88% 29.83 in 8.0 mi West 5.8 mph - N/A   Overcast
3:24 AM 71.6 °F - 68.0 °F 88% 29.84 in 8.0 mi WSW 5.8 mph - N/A   Mostly Cloudy
3:54 AM 70.0 °F - 66.9 °F 90% 29.83 in 9.0 mi Calm Calm - N/A   Scattered Clouds
4:07 AM 69.8 °F - 66.2 °F 88% 29.84 in 10.0 mi Calm Calm - N/A   Scattered Clouds
4:20 AM 69.8 °F - 66.2 °F 88% 29.84 in 8.0 mi Calm Calm - N/A   Overcast
4:28 AM 71.6 °F - 66.2 °F 83% 29.85 in 7.0 mi Calm Calm - N/A   Overcast
4:36 AM 71.6 °F - 66.2 °F 83% 29.84 in 8.0 mi Calm Calm - N/A   Mostly Cloudy
4:54 AM 69.1 °F - 66.0 °F 90% 29.85 in 7.0 mi SW 3.5 mph - N/A   Scattered Clouds
5:54 AM 69.1 °F - 66.0 °F 90% 29.88 in 7.0 mi West 6.9 mph - N/A   Scattered Clouds
6:10 AM 71.6 °F - 66.2 °F 83% 29.89 in 5.0 mi WNW 6.9 mph - N/A   Scattered Clouds
6:41 AM 71.6 °F - 66.2 °F 83% 29.89 in 7.0 mi NW 5.8 mph - N/A   Partly Cloudy
6:54 AM 71.1 °F - 66.9 °F 87% 29.89 in 8.0 mi NW 5.8 mph - N/A   Clear
7:54 AM 72.0 °F - 66.0 °F 81% 29.91 in 8.0 mi West 3.5 mph - N/A   Partly Cloudy
8:54 AM 73.9 °F - 66.0 °F 76% 29.92 in 8.0 mi WNW 4.6 mph - N/A   Partly Cloudy
9:19 AM 75.2 °F - 66.2 °F 73% 29.93 in 10.0 mi Calm Calm - N/A   Scattered Clouds
9:54 AM 78.1 °F - 63.0 °F 60% 29.94 in 10.0 mi Calm Calm - N/A   Scattered Clouds
10:54 AM 80.1 °F 81.2 °F 62.1 °F 54% 29.94 in 10.0 mi SSW 8.1 mph - N/A   Scattered Clouds
11:54 AM 81.0 °F 81.9 °F 62.1 °F 52% 29.94 in 10.0 mi SW 8.1 mph - N/A   Scattered Clouds
12:54 PM 82.9 °F 83.2 °F 60.1 °F 46% 29.94 in 10.0 mi WSW 11.5 mph - N/A   Scattered Clouds
1:54 PM 84.9 °F 84.4 °F 59.0 °F 41% 29.92 in 10.0 mi WSW 15.0 mph - N/A   Scattered Clouds
2:54 PM 86.0 °F 85.0 °F 57.9 °F 38% 29.91 in 10.0 mi WSW 12.7 mph - N/A   Scattered Clouds
3:54 PM 84.0 °F 84.0 °F 60.1 °F 44% 29.92 in 10.0 mi SW 9.2 mph - N/A   Mostly Cloudy
4:54 PM 84.0 °F 84.5 °F 62.1 °F 47% 29.92 in 10.0 mi SW 15.0 mph 20.7 mph N/A   Mostly Cloudy
5:54 PM 84.9 °F 85.4 °F 62.1 °F 46% 29.91 in 10.0 mi SW 15.0 mph - N/A   Mostly Cloudy
6:54 PM 84.0 °F 84.9 °F 63.0 °F 49% 29.90 in 10.0 mi SSW 15.0 mph - N/A   Mostly Cloudy
7:54 PM 81.0 °F 82.5 °F 64.0 °F 56% 29.91 in 10.0 mi SW 13.8 mph - 0.00 in   Mostly Cloudy
8:54 PM 79.0 °F - 64.9 °F 62% 29.93 in 10.0 mi SW 8.1 mph - N/A   Scattered Clouds
9:54 PM 78.1 °F - 64.9 °F 64% 29.94 in 10.0 mi SW 8.1 mph - N/A   Partly Cloudy
10:54 PM 75.9 °F - 66.0 °F 71% 29.94 in 10.0 mi SSW 4.6 mph - N/A   Mostly Cloudy
11:54 PM 75.0 °F - 66.0 °F 73% 29.95 in 10.0 mi SW 4.6 mph - N/A   Mostly Cloudy